SCP
0 0 0 0 0 0 0 0 0 0 0 0 0 0 0 0 0 0 0 0 0 0 0 0 0 0 0 0 0 0 0 0 0 0 0 0 0 0 0 0 0 0 0
0 0 0 0 0 0 0 0 0 0 0 0 0 0 0 0 0 0 0 0 0 0 0 0 0 0 0 0 0 0 0 0 0 0 0 0 0 0 0 0 0 0 0
0 0 0 0 0 0 0 0 0 0 0 0 0 0 0 0 0 0 0 0 0 0 0 0 0 0 0 0 0 0 0 0 0 0 0 0 0 0 0 0 0 0 0
0 0 0 0 0 0 0 0 0 0 0 0 0 0 0 0 0 0 0 0 0 0 0 0 0 0 0 0 0 0 0 0 0 0 0 0 0 0 0 0 0 0 0
0 0 0 0 0 0 0 0 0 0 0 0 0 0 0 0 0 0 0 0 0 0 0 0 0 0 0 0 0 0 0 0 0 0 0 0 0 0 0 0 0 0 0
0 0 0 0 0 0 0 0 0 0 0 0 0 0 0 0 0 0 0 0 0 0 0 0 0 0 0 0 0 0 0 0 0 0 0 0 0 0 0 0 0 0 0
0 0 0 0 0 0 0 0 0 0 0 0 0 0 0 0 0 0 0 0 0 0 0 0 0 0 0 0 0 0 0 0 0 0 0 0 0 0 0 0 0 0 0
0 0 0 0 0 0 0 0 0 0 0 0 0 0 0 0 0 0 0 0 0 0 0 0 0 0 0 0 0 0 0 0 0 0 0 0 0 0 0 0 0 0 0
0 0 0 0 0 0 0 0 0 0 0 0 0 0 0 0 0 0 0 0 0 0 0 0 0 0 0 0 0 0 0 0 0 0 0 0 0 0 0 0 0 0 0
0 0 0 0 0 0 0 0 0 0 0 0 0 0 0 0 0 0 0 0 0 0 0 0 0 0 0 0 0 0 0 0 0 0 0 0 0 0 0 0 0 0 0
0 0 0 0 0 0 0 0 0 0 0 0 0 0 0 0 0 0 0 0 0 0 0 0 0 0 0 0 0 0 0 0 0 0 0 0 0 0 0 0 0 0 0
0 0 0 0 0 0 0 0 0 0 0 0 0 0 0 0 0 0 0 0 0 0 0 0 0 0 0 0 0 0 0 0 0 0 0 0 0 0 0 0 0 0 0
0 0 0 0 0 0 0 0 0 0 0 0 0 0 0 0 0 0 0 0 0 0 0 0 0 0 0 0 0 0 0 0 0 0 0 0 0 0 0 0 0 0 0
0 0 0 0 0 0 0 0 0 0 0 0 0 0 0 0 0 0 0 0 0 0 0 0 0 0 0 0 0 0 0 0 0 0 0 0 0 0 0 0 0 0 0
0 0 0 0 0 0 0 0 0 0 0 0 0 0 0 0 0 0 0 0 0 0 0 0 0 0 0 0 0 0 0 0 0 0 0 0 0 0 0 0 0 0 0
0 0 0 0 0 0 0 0 0 0 0 0 0 0 0 0 0 0 0 0 0 0 0 0 0 0 0 0 0 0 0 0 0 0 0 0 0 0 0 0 0 0 0
0 0 0 0 0 0 0 0 0 0 0 0 0 0 0 0 0 0 0 0 0 0 0 0 0 0 0 0 0 0 0 0 0 0 0 0 0 0 0 0 0 0 0
0 0 0 0 0 0 0 0 0 0 0 0 0 0 0 0 0 0 0 0 0 0 0 0 0 0 0 0 0 0 0 0 0 0 0 0 0 0 0 0 0 0 0
0 0 0 -0 -0 0 0 0 -0 0 0 0 0 0 0 0 0 0 0 0 0 0 0 0 0 0 0 0 0 0 0 0 0 0 0 0 0 0 0 0 0 0 0
0 0 0 0 0 0 0 -0 -0 0 0 0 0 0 0 0 0 0 0 0 0 0 0 0 0 0 0 0 0 0 0 0 0 0 0 0 0 0 0 0 0 0 0
0 0 0 0 0 0 0 -0 0 0 0 0 0 0 0 0 0 0 0 0 0 0 0 0 0 0 0 0 0 0 0 0 0 0 0 0 0 0 0 0 0 0 0
0 0 0 0 0 0 0 0 0 0 0 0 0 0 0 0 0 0 0 0 0 0 0 0 0 0 0 0 0 0 0 0 0 0 0 0 0 0 0 0 0 0 0
0 0 0 0 0 0 0 0 0 0 0 0 0 0 0 0 0 0 0 0 0 0 0 0 0 0 -0 0 0 0 0 0 0 0 0 0 0 0 0 0 0 0 0
0 0 0 0 0 0 0 0 0 0 0 0 0 0 0 0 0 0 0 0 0 0 0 0 0 0 0 0 0 0 0 0 0 0 0 0 0 0 0 0 0 0 0
0 0 0 0 0 0 0 0 0 0 0 0 0 0 0 0 0 0 0 0 0 0 0 0 0 0 0 0 0 0 0 0 0 0 0 0 0 0 0 0 0 0 0
0 0 0 0 0 0 0 0 0 0 0 0 0 0 0 0 0 0 0 0 0 0 0 0 0 0 0 0 0 0 0 0 0 0 0 0 0 0 0 0 0 0 0
Wind_Speed
4 4 5 5 4 4 5 5 5 5 4 2 1 1 1 1 1 1 2 2 2 2 2 2 2 2 2 3 4 3 4 3 3 2 3 3 1 0 1 0 1 1 1
5 5 5 5 4 4 3 5 4 5 5 2 1 1 1 0 1 0 1 1 2 2 3 3 3 2 1 2 3 2 2 3 3 1 2 2 2 3 0 0 0 0 1
6 5 4 4 3 3 3 3 3 5 5 4 1 1 1 1 0 1 1 1 0 1 2 3 3 2 2 1 2 2 2 2 3 2 1 1 1 2 2 1 0 1 1
6 5 4 4 3 3 2 2 3 3 4 4 2 1 1 0 0 0 1 1 1 0 0 2 3 2 2 2 2 2 2 2 2 3 1 1 0 0 1 2 1 1 1
6 6 5 4 4 4 4 3 3 4 3 3 3 0 1 1 1 1 0 1 1 1 1 2 2 2 1 2 2 2 2 1 1 2 2 2 1 1 1 1 1 1 0
7 6 6 5 5 5 4 4 4 4 3 2 2 1 0 1 2 2 1 1 1 1 1 1 1 1 1 2 2 2 1 1 2 2 2 1 1 1 1 1 1 0 1
7 6 6 6 5 5 4 3 4 3 1 1 1 1 1 2 2 2 1 2 1 0 0 1 1 1 1 1 2 2 2 1 1 1 1 2 1 1 1 0 1 1 1
7 7 6 5 4 4 3 3 3 2 1 1 1 1 1 1 1 1 1 2 1 1 1 1 1 1 1 1 1 2 2 2 1 1 1 1 1 1 1 0 0 1 1
7 6 5 5 4 4 3 3 3 2 1 1 1 1 1 1 1 2 2 2 2 2 2 2 2 2 2 2 1 1 2 2 1 2 1 1 1 1 1 1 0 1 1
6 6 5 5 4 4 3 2 2 2 2 2 2 1 1 1 1 2 2 2 3 2 3 4 3 3 2 2 2 2 2 2 2 1 1 1 1 1 1 1 1 0 1
6 5 4 4 4 3 3 3 2 2 2 2 2 2 2 2 2 2 2 3 3 3 4 4 4 3 2 2 2 2 2 3 3 2 2 2 1 1 1 1 1 1 1
5 5 4 4 3 3 3 2 2 2 2 2 2 2 2 3 3 3 3 3 4 3 4 4 4 3 3 3 2 3 3 3 3 3 2 2 2 2 2 1 2 1 1
5 5 4 3 3 2 2 2 2 2 2 1 2 2 3 3 3 3 4 4 5 5 4 4 3 3 3 3 3 3 3 3 3 3 3 3 2 2 2 3 2 2 2
5 5 3 3 3 2 2 2 2 2 2 1 1 2 3 2 2 3 4 5 5 6 5 5 4 4 4 3 3 3 3 3 3 3 3 3 2 2 2 2 3 2 2
5 4 3 3 2 2 2 2 2 2 2 1 1 2 3 3 3 3 3 4 5 7 6 5 5 5 4 3 3 4 5 4 4 4 3 3 4 3 3 2 1 1 1
4 4 4 3 3 3 3 3 3 3 2 1 1 2 3 3 3 3 4 4 5 6 5 6 5 5 4 5 5 4 5 5 5 5 4 5 5 6 6 5 4 3 3
4 3 3 4 4 4 3 3 3 3 3 2 2 2 3 3 3 4 4 4 5 5 5 6 6 5 5 6 6 7 5 6 6 6 5 5 4 6 5 6 7 6 6
4 3 3 3 4 5 5 4 4 4 4 3 3 3 3 3 4 4 5 5 5 5 4 5 6 6 6 7 7 7 6 6 6 6 6 5 4 4 4 4 4 5 5
3 3 3 3 4 5 6 6 5 5 5 4 4 4 4 4 4 5 5 5 5 5 5 5 6 6 6 7 7 6 4 5 6 6 6 5 4 5 5 4 4 4 4
3 3 2 3 4 5 5 5 5 5 6 5 6 5 5 5 5 5 5 5 5 5 6 6 6 6 6 7 7 5 3 5 5 4 4 6 6 6 5 4 4 5 4
3 2 2 2 3 4 4 4 5 6 5 5 6 6 6 5 6 5 4 5 5 5 6 6 6 6 6 7 7 6 4 4 5 4 4 3 6 6 7 6 5 6 4
2 2 2 2 2 3 4 4 4 5 5 5 6 6 6 6 6 5 5 5 5 5 6 6 6 4 5 5 6 8 8 6 5 5 4 3 6 6 7 6 6 7 5
2 1 1 1 1 2 3 4 5 5 5 5 6 6 6 6 5 5 4 4 4 4 5 5 5 5 4 4 7 8 8 9 6 5 6 7 7 6 6 8 9 7 4
2 1 0 1 2 2 3 3 4 5 6 6 6 6 6 6 6 5 4 4 4 4 5 5 5 5 5 4 3 3 4 6 6 6 7 8 8 6 7 7 6 5 5
2 1 0 1 2 2 3 3 4 5 6 6 6 6 5 5 5 5 5 5 5 5 6 5 6 6 6 7 9 6 5 4 5 6 5 4 3 4 4 5 5 5 5
1 1 1 2 3 3 4 3 3 4 6 6 5 4 4 4 4 5 6 8 9 11 13 12 11 9 11 13 13 13 12 12 11 7 5 6 6 6 6 6 6 6 7
Wind_Direction
141 135 132 134 131 132 134 131 149 143 124 110 93 77 69 11 57 56 62 13 352 4 348 348 335 347 351 346 337 343 336 325 327 340 331 314 314 289 180 314 344 30 86
108 113 130 138 145 143 140 140 147 136 129 138 144 153 114 18 132 118 91 2 1 15 351 345 328 333 352 341 327 348 341 324 340 348 350 339 345 341 7 115 244 73 65
88 89 94 109 118 129 138 128 131 139 139 144 123 70 74 297 25 159 134 221 225 68 336 329 327 341 353 325 333 356 344 333 331 337 57 26 333 321 326 355 69 96 84
81 83 77 79 78 74 88 124 132 135 132 132 126 164 193 218 227 187 180 227 139 152 332 316 318 335 342 343 333 356 342 347 323 326 336 272 165 145 323 327 358 118 120
74 85 77 80 72 61 48 41 80 85 102 113 132 228 314 316 351 358 28 297 181 209 131 287 308 328 335 334 330 342 346 341 324 319 328 335 341 269 202 283 312 8 116
68 72 72 69 68 65 54 46 62 64 84 114 151 183 246 305 325 319 309 292 246 202 172 289 299 320 326 326 319 311 317 307 316 325 328 325 322 317 333 276 269 218 241
75 72 67 64 65 69 66 65 72 72 95 144 215 202 216 263 266 278 279 289 292 279 248 292 271 296 301 296 306 302 302 281 277 280 294 309 307 313 302 284 286 275 245
72 71 68 64 63 65 67 65 69 68 71 234 256 222 228 260 270 303 305 297 300 290 270 262 249 228 258 293 300 302 307 306 290 275 258 273 291 305 303 205 215 329 311
72 70 64 62 62 58 53 63 62 56 35 326 308 286 282 312 325 312 308 310 302 301 312 286 270 242 220 231 255 268 285 299 305 297 298 275 261 264 288 310 167 160 235
83 79 69 62 59 61 55 56 69 54 35 2 333 340 339 335 322 303 313 318 311 316 302 290 276 257 237 212 212 254 272 286 273 242 265 287 290 292 261 269 278 192 185
85 80 73 66 60 59 56 49 44 45 34 2 344 350 350 338 327 307 304 290 285 287 286 281 284 279 268 241 213 231 246 267 275 269 240 238 239 274 275 262 249 241 185
87 84 76 70 61 53 48 47 32 26 34 3 358 356 2 344 331 318 314 307 297 290 287 289 292 293 285 270 237 239 245 246 252 261 268 263 239 230 233 243 251 229 212
85 81 74 64 52 43 36 36 29 15 25 20 5 6 351 338 329 329 326 317 316 313 303 298 300 301 298 290 274 252 244 245 245 240 242 254 253 248 230 221 233 226 214
83 77 71 63 49 35 26 25 18 10 14 25 3 347 330 329 323 323 322 325 328 320 313 312 309 303 303 302 296 298 279 261 256 243 229 234 234 244 253 237 235 223 208
80 73 63 53 43 40 23 21 10 4 0 13 352 330 324 329 326 323 319 324 322 315 310 316 317 313 307 305 317 314 303 290 275 257 233 214 206 211 224 229 236 235 207
77 65 49 36 21 22 19 17 1 354 346 356 345 328 324 329 320 315 314 316 310 307 314 313 309 306 307 315 308 303 304 296 284 272 250 224 214 217 218 213 203 195 205
77 57 43 34 16 11 14 10 357 345 345 353 346 329 325 321 316 313 308 300 295 294 301 302 298 291 285 286 290 281 283 285 283 279 270 259 228 213 215 218 218 222 222
86 61 40 30 15 13 12 7 4 355 356 1 344 331 323 317 313 305 296 290 292 293 287 287 288 286 281 277 275 278 276 277 275 275 273 261 241 230 220 218 217 215 222
93 75 38 28 19 17 8 0 1 3 6 3 346 338 331 315 301 293 288 285 288 289 286 283 282 284 281 271 268 266 277 276 271 269 274 272 254 240 233 228 224 216 215
86 78 49 30 21 11 3 358 356 3 1 353 340 332 321 307 296 288 286 284 280 278 283 283 280 282 281 270 267 267 271 282 282 274 264 262 258 253 234 233 228 224 218
89 77 62 41 19 2 356 357 356 352 344 336 328 317 311 303 293 286 288 291 288 285 282 283 280 278 282 277 269 261 264 279 291 285 273 259 252 254 251 239 231 230 216
103 85 64 40 11 358 352 351 346 335 330 324 317 310 306 303 306 295 288 291 295 294 288 286 289 284 279 278 275 269 264 279 286 286 282 268 257 256 260 253 236 229 219
123 106 74 16 348 353 356 339 331 328 324 322 318 311 311 309 307 305 303 299 294 290 292 294 294 296 295 285 280 272 277 282 283 284 287 275 266 257 252 246 235 221 214
142 136 119 320 327 343 340 328 327 325 323 321 318 316 318 319 322 320 306 299 297 294 292 292 291 290 288 285 280 280 288 286 284 283 283 277 258 246 244 243 234 222 208
151 166 239 294 307 318 314 319 325 325 320 317 319 320 318 316 314 311 306 302 289 283 287 287 289 293 291 285 281 280 275 270 267 283 283 268 252 244 246 238 223 217 210
188 215 241 272 295 307 309 317 320 318 316 317 320 316 311 309 310 309 309 302 292 291 287 280 279 283 282 290 286 280 279 275 272 272 265 254 242 236 233 234 230 223 214